Dewpoint
62 55 54 51 53 54 48 45 38 35 32 22 18 23 20 24 24 25 23 23 26 27 26 26 26 27 24 23 21 23 24 25 27 21 26 48 57 56 61 62 62 64 64 64 65 70 70 70 71 72 72 73 73 73 73 73 72 72 72 72 72 71 72 71 71 70 70 70 69 68 68 68 67 67 68 68 68 68 68 67 68 68 68 68 68 68 68 67 68 68 67 67 73 71 71 70 70
51 49 49 52 52 51 45 43 39 26 29 17 18 21 17 22 25 21 20 22 26 26 29 27 26 26 28 27 27 27 26 28 27 28 33 55 42 51 58 62 61 61 64 63 63 66 69 71 70 72 72 72 73 73 72 72 73 72 72 73 72 72 71 71 71 70 70 69 69 68 67 67 68 67 68 68 68 68 68 68 68 68 68 68 68 68 68 68 67 67 66 66 72 71 71 70 70
52 49 50 53 50 48 44 38 32 24 20 16 17 18 24 20 19 19 21 22 23 26 28 27 28 27 26 27 27 23 23 24 24 27 28 34 34 54 56 61 60 62 63 64 63 64 68 69 69 71 72 73 73 73 73 73 73 72 73 73 72 72 71 70 70 69 69 68 68 68 68 68 67 68 67 68 68 68 68 68 68 68 68 68 67 67 67 68 68 67 66 66 72 71 71 71 70
55 55 52 49 46 44 43 36 26 23 18 16 22 22 20 21 20 20 21 23 25 26 27 25 24 28 25 23 20 21 21 21 24 31 27 28 48 52 57 58 63 60 62 65 64 63 66 68 69 70 72 72 73 73 73 73 73 73 73 73 73 72 71 70 70 69 69 68 68 68 68 67 67 67 67 68 68 68 69 68 68 68 68 68 68 67 66 67 68 68 67 67 70 71 71 71 70
57 54 51 49 48 41 36 25 22 19 15 16 15 19 19 21 19 20 20 21 23 25 26 24 24 28 25 23 23 21 22 26 30 26 29 39 57 57 59 61 58 56 60 61 62 63 66 70 69 70 71 72 72 73 73 73 73 73 73 72 73 72 72 71 70 69 69 68 68 68 67 67 67 67 67 67 68 68 69 69 69 68 68 69 70 69 68 67 67 68 68 68 68 71 71 71 70
52 47 51 49 44 36 29 30 22 17 17 19 17 17 18 19 19 19 20 21 22 25 25 23 23 21 21 22 24 22 25 22 29 29 44 35 61 59 59 60 50 46 50 59 61 62 64 67 69 70 70 71 72 72 72 73 73 72 72 72 72 72 72 71 70 69 69 68 68 68 67 67 67 67 66 66 68 70 70 71 69 69 70 70 70 70 69 68 67 68 68 68 68 71 71 70 71
50 44 43 44 37 37 30 19 18 19 17 20 19 18 19 19 20 20 19 20 24 24 26 23 23 22 21 22 21 29 30 32 31 33 53 54 58 59 58 51 49 49 49 54 61 63 66 67 69 69 70 71 71 72 72 72 72 72 72 72 72 72 72 72 70 69 68 68 67 67 67 67 67 67 67 70 70 70 70 70 70 69 69 70 70 70 70 69 68 67 68 69 68 71 71 70 70
47 38 41 35 35 30 25 18 21 17 21 21 19 20 18 20 20 20 19 20 18 20 26 24 24 22 23 22 20 40 35 38 40 40 41 41 49 52 52 50 46 45 47 52 61 63 65 66 68 69 69 70 71 71 71 71 72 72 72 72 72 72 71 71 71 70 69 68 67 67 67 67 68 68 69 70 70 70 70 69 70 70 70 70 70 70 70 69 69 68 68 69 71 71 70 70 70
41 37 43 34 32 27 21 15 18 17 20 19 19 24 31 21 21 21 20 20 19 19 19 19 22 20 17 18 19 27 31 41 42 47 47 50 51 53 50 51 49 52 53 56 60 63 66 65 66 67 68 69 70 71 71 71 72 72 71 72 72 71 71 71 70 71 71 69 67 67 68 68 68 69 70 70 70 70 69 69 69 70 70 70 70 70 70 70 69 68 68 71 71 70 70 69 69
36 34 31 33 31 24 17 20 21 15 18 19 18 18 19 19 19 21 21 20 19 20 19 20 20 18 18 17 18 25 34 40 40 39 46 47 51 53 52 51 54 58 58 56 61 62 63 66 65 66 67 68 69 70 71 71 71 71 71 71 71 71 71 71 71 70 70 70 71 70 69 70 71 71 71 70 70 69 69 69 69 70 70 69 69 70 70 70 69 67 67 72 71 70 69 69 69
30 35 36 31 29 16 20 15 18 22 18 19 19 20 19 20 21 20 19 18 19 17 18 20 18 17 17 17 21 44 43 30 34 39 47 49 52 47 47 51 55 61 59 61 63 63 62 63 64 65 66 67 68 69 70 71 71 71 71 71 71 70 71 71 71 69 69 70 71 71 71 72 71 71 70 70 69 69 69 69 69 70 70 69 69 70 69 69 69 69 69 71 70 70 69 69 69
31 30 34 30 23 15 18 15 17 19 18 21 19 19 20 20 21 19 18 17 17 18 18 20 18 18 17 18 26 30 32 36 40 47 48 48 40 43 51 49 54 58 60 62 62 62 63 62 65 63 64 65 66 67 69 69 70 70 70 70 70 70 70 70 70 70 70 70 70 71 71 71 71 70 70 69 69 69 69 69 69 69 69 69 69 69 69 69 68 68 70 70 70 70 69 69 68
32 34 26 22 23 17 18 19 18 18 23 16 17 19 21 20 20 18 19 18 17 15 17 18 19 18 19 20 24 24 37 44 41 50 47 47 48 47 50 48 54 58 60 62 62 61 63 63 62 63 64 63 63 64 65 67 68 69 70 70 70 70 70 70 69 69 68 69 70 70 70 70 70 70 70 69 69 69 69 69 69 69 68 69 69 69 69 68 69 70 69 69 69 69 68 69 68
34 34 29 29 22 17 18 19 20 16 19 20 19 20 20 19 20 20 20 19 17 17 19 20 19 19 19 19 22 23 24 31 30 41 44 49 52 53 54 54 56 58 60 60 59 59 60 62 61 61 63 65 64 64 63 64 65 67 68 69 69 69 69 69 69 69 69 69 69 69 68 67 67 68 68 69 69 69 69 69 69 69 68 69 69 69 68 68 69 70 69 69 69 69 68 68 67
35 35 29 29 17 14 20 20 18 16 18 19 20 20 20 21 20 21 20 21 17 20 21 21 22 19 18 19 21 26 26 31 35 38 40 40 40 45 56 56 57 59 58 58 57 58 58 59 60 61 61 62 63 64 65 66 64 65 66 67 67 68 68 67 67 67 67 67 67 67 66 65 64 65 65 66 67 67 66 66 67 68 68 69 68 69 68 68 69 69 69 69 68 68 67 68 68
39 33 33 30 19 18 21 17 20 23 19 17 21 21 20 19 21 20 20 20 23 29 24 18 21 19 20 22 27 27 25 34 39 41 39 41 42 42 39 39 37 36 49 56 57 57 58 58 59 61 61 61 61 62 63 64 64 63 64 66 66 66 67 66 66 66 65 64 64 64 63 65 63 65 62 65 63 66 65 64 65 66 67 68 67 68 68 68 68 69 68 69 69 68 67 67 67
38 37 32 22 21 17 20 17 17 16 19 19 21 20 19 18 21 20 21 20 19 18 19 20 20 21 21 24 28 27 29 35 38 36 36 35 32 31 34 36 37 38 44 43 43 43 52 57 57 59 60 60 61 61 62 63 64 63 63 63 63 64 65 65 65 63 61 61 61 61 60 66 66 66 67 67 62 67 61 61 64 66 66 67 66 66 67 68 68 68 68 67 67 67 65 65 64
39 36 24 25 17 19 19 19 18 20 19 16 17 19 20 17 19 19 19 19 19 19 19 20 19 17 18 29 32 31 28 28 30 31 32 33 33 31 33 35 35 35 38 40 43 44 45 46 55 54 56 60 60 62 63 64 64 63 66 66 67 66 64 62 65 66 63 66 61 65 66 65 64 63 62 62 65 66 64 59 60 63 65 66 65 65 66 67 68 68 67 66 66 66 63 65 63
36 27 24 22 21 19 19 19 19 18 17 18 18 19 20 18 19 19 18 17 18 19 20 21 19 17 20 27 29 26 26 26 27 27 30 31 29 29 31 33 34 36 39 41 40 41 42 43 45 49 55 56 59 60 62 62 62 62 62 63 64 64 65 65 66 65 65 64 65 66 64 64 63 62 61 62 63 61 66 58 60 63 64 64 64 64 65 67 67 67 67 66 65 63 64 64 63
32 27 24 23 22 19 20 20 19 20 20 19 19 19 19 19 19 20 18 18 18 19 20 20 18 18 21 27 27 27 25 26 29 28 28 30 30 29 27 29 27 31 31 33 36 40 39 40 43 45 49 53 57 58 60 60 60 60 60 61 61 62 64 64 65 65 64 64 64 62 62 62 63 61 58 58 60 65 62 58 59 60 60 62 61 62 63 65 67 66 65 64 63 62 64 64 63
33 23 22 24 20 22 20 20 20 20 20 20 19 19 19 19 19 19 18 17 19 20 21 19 18 20 24 26 28 27 26 26 27 28 28 29 30 30 26 26 27 29 33 32 34 34 34 34 38 42 45 49 52 56 57 58 59 59 59 60 60 60 61 62 63 63 63 63 63 62 62 62 62 60 65 63 64 63 64 63 64 64 65 65 59 65 65 65 65 64 63 63 64 64 64 63 63
28 21 23 23 22 22 21 21 21 21 21 20 20 19 18 19 19 18 18 18 20 20 20 19 21 24 22 23 25 26 25 26 23 25 25 26 27 24 24 25 24 27 28 27 31 27 29 33 40 39 40 44 50 52 54 56 57 58 59 59 60 60 61 60 61 62 61 61 61 62 61 61 61 59 64 63 63 61 61 63 63 62 65 64 63 63 64 62 63 64 63 64 64 64 64 63 63
18 22 21 22 21 20 21 21 21 23 21 19 19 19 20 19 18 19 20 20 20 22 21 22 23 21 20 21 24 23 23 22 21 24 23 23 23 24 21 19 19 20 23 21 23 22 32 34 33 37 38 41 44 49 52 54 55 56 58 58 58 59 60 60 61 61 61 61 63 63 62 60 59 59 62 63 64 59 61 60 62 61 63 64 64 63 63 62 62 62 62 63 64 63 63 63 63
22 19 21 22 21 21 22 21 22 21 20 19 18 20 20 19 16 20 21 20 21 22 23 23 22 20 19 18 18 19 20 20 22 21 22 21 22 22 23 19 20 23 26 27 26 25 26 26 30 35 38 40 41 42 45 49 53 55 57 57 58 58 59 60 60 61 62 60 61 62 60 60 58 59 60 62 63 60 60 58 62 62 63 63 63 63 63 62 62 61 61 62 62 62 62 62 62
23 23 21 22 22 21 22 20 20 20 20 18 19 20 18 18 18 20 20 20 23 23 22 20 18 18 19 17 16 18 19 20 20 22 23 21 24 25 27 22 21 22 25 27 27 24 29 29 30 31 37 40 43 44 46 48 51 54 55 56 57 57 59 59 60 61 61 61 62 62 61 60 59 59 59 61 62 60 60 60 62 62 62 62 63 63 64 62 61 61 61 61 61 61 61 61 61
22 21 21 22 21 20 20 19 20 19 18 14 18 17 18 20 21 20 20 21 23 21 19 17 17 17 17 16 15 16 17 19 22 21 21 23 24 22 24 21 22 21 21 26 28 29 27 27 29 31 38 41 44 45 46 45 48 52 54 55 56 57 58 59 60 60 61 61 62 62 61 61 59 57 59 60 60 59 60 62 61 61 60 64 64 63 63 63 62 61 61 61 60 60 60 60 60
23 21 21 20 19 19 19 19 19 19 17 16 16 17 17 19 21 19 19 21 21 19 19 17 17 16 16 15 18 16 15 18 17 19 21 22 22 21 22 21 22 22 23 24 26 31 31 30 32 31 37 45 47 45 46 46 46 48 53 54 54 55 57 59 60 61 61 61 61 61 63 60 58 58 59 60 62 60 60 62 61 61 61 61 61 62 63 62 62 61 61 61 60 60 59 60 60
21 20 20 19 19 19 19 19 20 20 16 19 18 18 18 19 22 19 19 19 21 19 18 16 17 16 15 14 14 19 15 17 16 19 19 19 20 19 19 20 21 22 23 26 26 26 28 32 30 31 31 35 39 37 42 45 47 49 52 55 55 55 56 58 59 61 60 61 62 62 63 61 58 58 58 59 59 58 61 62 62 62 61 61 60 61 62 61 61 61 61 61 59 59 59 60 60
20 20 18 16 18 18 19 19 20 21 16 20 20 20 16 18 20 22 21 20 21 19 17 18 16 15 15 14 13 14 15 16 18 18 20 18 18 18 18 18 18 19 20 23 24 29 27 29 32 33 32 36 37 38 37 39 44 46 47 51 55 58 57 58 59 60 59 60 61 61 60 61 60 59 59 59 60 59 60 61 60 61 62 60 60 62 61 60 60 62 61 60 59 58 58 59 59
21 20 17 15 17 17 17 18 19 19 17 22 17 6 5 18 20 21 22 20 19 17 15 15 16 14 13 13 13 14 16 16 15 16 15 17 17 17 19 18 20 18 17 20 26 26 28 32 34 34 36 33 38 32 35 34 36 43 48 50 52 55 55 56 59 59 59 59 60 61 61 62 62 59 57 59 60 60 59 61 62 60 61 61 61 62 62 61 61 61 60 60 57 57 57 58 59
19 20 17 18 12 16 19 18 18 18 21 23 11 9 3 7 10 18 21 20 16 15 14 14 15 14 12 15 14 14 14 14 15 14 18 18 16 18 18 18 18 19 18 17 20 26 30 29 33 30 34 32 33 31 36 39 37 39 41 47 50 52 53 55 58 59 58 57 59 61 61 61 60 61 60 59 60 61 59 61 60 60 61 61 61 61 61 60 59 59 59 59 58 58 58 58 59
15 16 17 19 15 12 19 18 16 13 17 20 10 10 3 4 10 20 19 17 15 14 13 13 13 13 13 13 12 12 14 14 16 15 13 11 14 16 19 18 19 20 20 18 18 22 27 29 33 31 30 30 31 32 35 37 38 38 41 45 46 51 52 53 54 58 61 59 58 60 60 60 60 60 60 60 59 60 61 61 61 61 61 61 62 61 60 59 58 59 58 59 58 58 58 58 58
19 17 19 20 17 13 8 20 20 20 17 15 16 7 10 12 14 19 18 16 15 14 13 13 12 12 12 12 13 13 13 11 13 11 14 14 14 14 16 15 18 19 20 19 18 21 23 23 30 32 30 30 28 26 31 36 40 41 41 42 46 49 50 51 53 56 59 62 60 60 59 59 59 60 60 59 58 60 60 60 61 61 61 60 61 61 61 59 58 58 57 57 58 58 58 58 57
19 19 15 19 11 10 7 20 20 23 18 11 13 17 15 11 13 19 17 16 14 13 12 12 13 13 13 14 11 10 10 10 11 12 14 15 15 14 12 21 19 19 19 18 18 20 21 23 23 27 30 30 28 28 28 31 35 38 41 42 45 46 50 51 52 55 57 59 61 60 59 59 59 58 59 60 59 59 58 60 60 60 60 60 60 60 59 60 59 57 56 55 58 58 58 57 56
19 17 16 10 7 4 5 8 17 18 18 14 12 13 9 8 13 17 16 14 13 13 12 12 12 13 13 12 11 9 11 10 11 13 15 14 15 15 15 16 17 18 16 16 18 21 21 20 22 24 26 24 27 29 27 30 30 34 38 41 42 43 45 49 52 57 59 58 60 59 59 58 59 60 59 59 60 59 60 61 60 60 59 59 59 59 59 59 59 59 57 56 57 57 57 56 56
14 14 12 11 13 10 7 9 18 18 14 9 8 8 6 6 10 17 15 14 14 13 13 12 12 11 11 10 10 10 12 10 14 14 16 15 16 18 16 15 16 15 13 11 17 19 19 21 24 23 21 22 24 26 30 30 31 30 33 35 38 41 43 46 50 52 55 58 58 58 58 59 58 58 59 59 59 60 60 59 59 59 58 59 58 58 58 58 58 58 57 57 57 57 56 55 55
11 15 17 12 13 13 10 15 17 18 12 9 8 6 4 5 14 16 15 15 14 12 11 11 10 12 11 10 10 10 10 11 18 15 15 14 13 10 16 15 15 14 14 14 13 14 16 18 20 22 24 23 22 27 28 28 28 30 30 32 33 37 36 40 46 52 53 54 55 57 58 59 59 58 58 60 59 58 60 60 59 58 58 58 57 57 57 57 57 58 57 56 57 56 56 55 55
15 17 19 14 18 10 16 15 18 17 14 10 7 5 7 7 18 17 15 13 11 9 9 9 8 8 10 9 10 11 9 16 16 12 9 10 10 15 9 10 18 13 10 11 14 14 14 15 17 18 20 21 21 22 29 31 29 28 30 31 32 35 36 38 42 49 54 56 56 56 57 58 58 58 57 59 58 60 60 60 59 58 58 57 57 57 57 56 57 57 57 55 56 55 55 55 55
18 15 15 18 10 21 12 15 18 15 12 7 5 8 9 5 19 17 14 12 12 12 11 9 8 10 10 10 9 9 6 6 6 7 10 3 8 7 9 11 9 7 11 13 14 15 15 13 13 14 14 20 23 22 22 30 32 32 29 30 33 35 37 39 41 45 52 55 56 57 58 58 58 59 59 58 58 59 60 59 59 58 57 57 57 57 57 57 57 57 56 55 55 55 54 55 54
20 19 20 13 17 19 13 15 14 12 9 9 10 10 11 8 19 17 15 14 15 15 13 15 12 8 9 7 7 4 4 7 6 4 2 1 4 3 5 7 8 11 10 9 10 10 12 16 15 15 16 14 18 21 25 23 31 34 34 28 30 33 35 39 39 41 47 50 52 54 56 57 58 57 58 59 59 59 59 59 59 59 58 56 56 56 57 56 56 56 56 55 55 53 53 53 54
19 22 22 18 22 19 20 15 14 12 6 19 10 11 6 21 17 16 16 18 13 8 6 7 10 13 12 11 8 7 4 4 5 4 2 3 6 7 7 9 9 11 13 12 13 12 11 13 14 16 15 16 15 21 23 20 27 30 32 32 30 29 32 33 35 34 42 46 49 53 54 54 56 57 58 58 58 58 59 59 59 58 58 57 56 57 55 55 56 56 55 55 54 54 52 52 53
10 24 24 23 20 18 19 17 14 9 6 12 7 3 4 16 19 19 20 19 11 6 4 5 7 6 6 3 4 6 11 7 6 2 -2 -4 -6 1 4 6 8 9 10 12 13 13 11 13 16 18 17 16 16 16 19 25 21 25 27 27 27 30 31 31 31 33 38 42 47 50 53 54 54 55 57 58 58 57 57 58 59 58 57 57 56 56 55 55 55 56 55 55 54 54 53 52 52
14 14 23 22 20 21 18 16 16 9 5 5 4 5 6 2 0 21 20 15 7 2 4 5 5 4 1 1 1 0 0 3 7 5 3 3 5 4 4 6 9 10 10 13 14 14 14 14 16 16 17 17 20 19 19 18 20 20 23 23 28 28 31 33 35 39 40 43 47 49 50 52 53 54 55 57 58 57 57 58 58 58 58 57 55 55 54 54 55 55 55 55 55 54 53 52 51
7 23 22 18 18 16 17 17 17 11 12 12 5 8 6 6 3 18 15 10 3 -1 0 4 4 -1 -3 -4 -1 2 2 2 6 4 1 -0 1 4 5 7 9 10 13 15 17 16 14 15 17 17 16 16 12 19 19 18 18 19 21 24 24 28 27 30 33 37 40 42 44 45 48 50 51 52 52 53 57 57 57 58 57 57 57 57 56 55 54 54 54 55 55 55 55 55 54 53 52
16 18 18 15 13 15 18 18 14 13 7 5 4 13 6 9 9 12 12 7 2 -0 -1 1 1 -1 -3 -1 1 -0 -1 1 2 4 3 2 2 4 6 9 11 12 15 17 16 15 21 16 14 14 15 17 15 9 21 20 20 19 19 19 21 26 28 31 30 34 39 42 43 44 45 48 49 49 49 49 51 57 57 57 57 57 57 57 54 56 55 54 54 55 55 55 55 54 53 53 53
20 19 22 23 22 23 23 13 8 6 0 7 7 8 6 4 8 16 13 7 4 1 -2 -2 -1 -2 -1 1 2 1 0 2 5 2 0 2 4 6 9 10 12 14 15 18 17 20 19 18 17 18 16 15 18 18 14 20 20 20 19 20 21 23 28 30 32 31 33 39 39 41 44 45 47 47 48 48 48 52 57 57 57 57 56 57 54 56 55 54 54 54 54 54 55 54 53 51 50
19 24 24 17 15 13 6 5 2 5 3 9 10 9 4 3 6 0 5 7 2 -1 -5 -5 -1 0 -4 -1 -1 -1 -2 1 2 2 2 3 6 8 10 11 11 12 16 16 18 17 17 16 16 13 11 15 16 17 19 16 20 20 19 21 23 21 25 32 33 32 31 34 37 39 42 43 45 46 47 47 48 49 54 56 57 57 57 54 53 56 56 54 54 54 54 54 54 53 53 52 50
22 17 12 10 9 3 2 6 10 4 5 7 7 11 7 1 -5 7 -1 -1 -4 -4 -8 -4 -0 -3 -1 1 1 1 -1 1 3 3 4 5 7 10 12 11 10 11 12 13 15 17 17 17 17 19 14 15 14 17 17 18 18 21 21 21 20 22 24 30 31 31 32 33 38 40 42 43 43 44 45 46 46 47 50 55 55 57 56 56 55 56 55 54 54 54 54 54 54 53 53 51 51
19 12 10 7 4 4 2 5 5 4 5 10 2 5 -7 -7 -5 -3 -3 -3 -6 -6 -3 0 -1 -2 -1 -1 -0 1 4 3 3 4 5 8 9 9 10 10 12 14 14 17 16 16 16 17 12 13 13 14 15 15 18 18 19 20 20 21 22 21 22 26 31 34 33 33 36 39 39 41 43 42 43 44 45 46 47 51 55 55 56 55 55 56 56 54 53 54 54 54 54 53 52 52 51
11 9 10 5 1 2 3 4 3 1 12 5 -3 4 -11 -8 -8 -9 -5 -6 -6 -3 1 1 -1 -2 -0 1 0 -2 3 3 5 6 7 9 11 13 10 8 13 16 15 13 14 17 16 16 16 17 17 16 15 17 18 19 20 21 21 22 22 22 23 26 31 32 33 31 35 37 39 41 42 42 42 43 45 45 46 47 53 55 56 55 54 55 55 54 54 53 54 54 53 52 53 52 51
4 15 6 6 4 4 1 -2 -2 2 2 8 5 1 -0 3 -5 -1 -5 -5 -1 -1 -1 0 -0 -0 1 1 1 1 3 3 5 7 10 10 11 12 15 15 14 15 15 16 16 13 14 14 12 10 14 12 15 19 21 20 19 19 22 23 24 23 23 26 31 33 32 32 33 36 39 42 42 42 43 43 44 44 45 46 47 52 55 55 54 54 54 54 54 54 54 53 52 52 52 52 52
14 13 14 5 5 5 -1 1 4 4 0 1 5 -1 6 -4 1 0 -2 -4 -3 -1 -2 -1 -4 -2 3 2 3 3 3 3 5 7 9 9 8 8 9 11 12 14 15 16 12 11 17 14 13 11 14 14 12 10 12 16 14 14 15 14 19 25 26 27 30 32 31 33 34 36 38 41 41 42 42 43 43 44 44 44 46 48 53 55 54 54 54 54 54 53 53 53 52 52 52 51 52
8 8 6 6 10 5 4 7 15 12 5 1 7 0 5 0 5 -0 -1 -4 -6 -4 -4 -4 -3 0 2 3 4 4 5 7 9 11 10 10 11 12 15 16 16 15 16 14 12 13 13 13 14 12 10 11 12 11 10 13 16 16 15 13 13 25 26 27 29 33 33 29 34 36 37 39 40 41 41 42 42 42 43 44 45 47 52 54 54 53 54 54 54 54 54 53 52 52 52 51 52
11 5 4 13 8 5 6 -8 -4 -2 -4 1 7 3 -5 -3 -4 2 -2 -2 -4 -4 -4 -5 -2 0 -1 3 4 4 5 6 7 8 9 9 7 8 11 15 14 14 13 8 14 14 13 12 10 9 10 10 11 12 14 15 16 18 18 14 15 28 28 28 29 32 34 33 33 35 37 38 38 40 41 41 41 41 41 41 44 46 49 53 53 53 53 53 53 53 53 53 53 52 51 51 51
10 2 11 -3 -6 -4 -7 -0 -4 -3 -2 -3 2 -6 -2 -7 -7 1 -1 -3 -4 -4 -3 -3 -1 -1 1 2 3 4 5 6 8 10 11 10 13 16 17 13 14 13 15 13 10 10 11 10 10 10 10 10 11 12 12 12 14 17 20 19 19 22 23 27 31 32 34 34 33 35 37 38 39 39 40 40 39 40 40 41 43 45 48 51 53 53 53 53 53 53 53 54 53 52 51 51 51
12 8 0 15 -7 1 -5 1 4 -5 -5 -1 3 2 -3 3 -8 -1 -5 -5 -2 -5 -3 -1 -0 1 0 2 4 5 8 10 11 12 11 8 5 11 12 12 12 12 11 12 11 13 11 10 9 10 10 10 9 9 11 12 13 12 14 15 17 17 17 21 26 30 35 35 35 35 36 37 38 38 39 39 39 39 39 40 41 43 46 49 52 53 53 52 53 53 53 53 53 52 52 51 51
-0 -4 -8 2 11 0 -0 -7 2 -1 -3 -5 -4 -4 -1 3 -3 -4 -2 -3 -2 -1 2 4 4 4 3 4 5 6 8 9 9 9 11 15 16 15 14 14 13 12 10 13 12 9 8 9 8 8 9 8 9 9 10 11 12 12 12 13 14 17 18 18 26 31 32 36 36 35 37 37 37 38 39 39 38 38 38 40 40 41 43 47 51 52 52 52 52 52 53 53 52 51 51 51 50
3 -2 -5 -4 1 -0 -2 1 2 3 -4 -3 -4 -4 3 5 -1 -3 -2 -2 1 2 1 2 3 3 5 7 8 8 8 6 4 4 7 13 14 14 11 11 12 12 11 9 8 10 8 6 7 7 7 8 7 8 9 9 10 12 12 13 13 17 20 21 20 24 31 32 35 36 37 37 38 38 39 39 38 38 39 39 39 40 41 45 49 52 52 52 51 51 52 52 51 51 50 50 50